Back to catalog

THOR ABLESTAR DEB

AliveLEO
NORAD 324·DEBRIS·🇺🇸 United States

Launched Jun 29, 1961 from Cape Canaveral Space Force Station

Loading…

Next Passes (next 24 hours)

TLE

FreshSource: Space-Track

Epoch: Sep 9, 2026, 21:46 UTC

1 00324U 61015DA  26252.90727906  .00000460  00000-0  28026-3 0  9990
2 00324  66.8695 176.8341 0071280 320.2106  39.3769 14.13470872335042

Track THOR ABLESTAR DEB in real time with AllMySat

Download on the App Store